Regional Weather Roundup
Issued by NWS

Home | Current Version | Previous Version | Graphics & Text | Print | Product List | Glossary On
Versions: 1 2 3 4 5 6 7 8 9 10 11 12 13 14 15 16 17 18 19 20 21 22 23 24 25 26 27 28 29 30 31 32 33 34 35 36 37 38 39 40 41 42 43 44 45 46 47 48 49 50
000
ASUS43 KFSD 231802
RWRSD

WEATHER ROUNDUP FOR SOUTH DAKOTA
NATIONAL WEATHER SERVICE SIOUX FALLS SD
1200 PM CST THU FEB 23 2017

NOTE: "FAIR" INDICATES FEW OR NO CLOUDS BELOW 12,000 FEET WITH NO
SIGNIFICANT WEATHER AND/OR OBSTRUCTIONS TO VISIBILITY.


SDZ001>005-009-010-012>017-231900-
NORTHWEST AND NORTH CENTRAL SOUTH DAKOTA

CITY           SKY/WX    TMP DP  RH WIND       PRES   REMARKS
BUFFALO          N/A     30  23  75 E14       29.87R WCI  19
FAITH            N/A     30  24  78 NE14      29.93R WCI  19
MOBRIDGE       CLOUDY    32  24  72 NE15      29.95S WCI  22
$$

SDZ012>016-024>037-041>051-057-063-072>074-231900-
SOUTHWEST AND SOUTH CENTRAL SOUTH DAKOTA

CITY           SKY/WX    TMP DP  RH WIND       PRES   REMARKS
RAPID CTY ARPT LGT SNOW  26  22  84 E13       29.89S VSB 1   WCI  15
PIERRE         CLOUDY    31  23  72 E14       29.94R WCI  21
CUSTER         LGT SNOW  17  13  84 NE17      29.73R VSB 3/4 WCI   1
ELLSWORTH AFB  LGT SNOW  26  25  98 NE8       29.89R FOG     WCI  17
PHILIP         CLOUDY    30  22  72 E15       29.93S WCI  19
PINE RIDGE     SNOW      25  22  88 NE17G25   29.80F VSB 1/2 WCI  12
SPEARFISH      LGT SNOW  25  23  93 E15G21    29.86R WCI  12
WINNER         SNOW      30  26  85 NE18      29.87F VSB 1/2 WCI  18
$$

SDZ004>011-016>023-039-040-231900-
NORTHEAST SOUTH DAKOTA

CITY           SKY/WX    TMP DP  RH WIND       PRES   REMARKS
ABERDEEN       CLOUDY    30  21  69 NE20G26   29.99S WCI  17
WATERTOWN      PTSUNNY   29  22  75 NE20      29.93R WCI  16
BROOKINGS      CLOUDY    29  24  82 NE15      29.91R WCI  18
SISSETON         N/A     30  24  78 NE21      29.98F WCI  17
$$

SDZ017-020-022-023-036>040-048>070-231900-
SOUTHEAST SOUTH DAKOTA

CITY           SKY/WX    TMP DP  RH WIND       PRES   REMARKS
SIOUX FALLS    LGT SNOW  32  26  78 NE16      29.87F WCI  21
HURON          CLOUDY    32  24  72 NE16      29.94R WCI  21
CHAMBERLAIN    FLURRIES  32  26  80 NE14G20   29.91F WCI  22
MITCHELL       CLOUDY    33  25  72 NE15      29.92F WCI  23
YANKTON        CLOUDY    32  27  80 N17       29.83F WCI  21
$$

ABBREVIATIONS USED IN REMARKS
   TC - TEMPERATURE IN CELSIUS
  WCI - WIND CHILL INDEX
   HX - HEAT INDEX
  VSB - VISIBILITY





USA.gov is the U.S. government's official web portal to all federal, state and local government web resources and services.